Погода в Назии

Россия / Санкт-Петербург и Ленинградская область     59°50′20″N   31°35′01″E
темп.,
°C
ветер,
м/с
пор.,
м/с
влажн.,
%
обл.,
%
осадки,
мм/ч
давл.,
гПа
погр.,
м
27 июля, вт
вт2700:00+18зюз226450 0.0 102029
03:00+17юз22714 0.0 102035
06:00+17юз11735 0.0 102022
09:00+24юз12474 0.0 1020405
12:00+28ююз21354 0.0 10192035
15:00+29ю213046 0.0 10172696
18:00+28ю223236 0.0 10162281
21:00+21юв11585 0.0 101611
28 июля, ср
ср2800:00+19вюв2462100 0.0 101563
03:00+17юв2568100 0.0 101483
06:00+17юв2671100 0.0 1012117
09:00+21ююв3665100 0.0 1012307
12:00+25ю3553100 0.0 10101113
15:00+25ююз5654100 0.0 10091183
18:00+18ю3892100 0.3 1008354
21:00+18ююв3897100 1.1 1007320
29 июля, чт
чт2900:00+18ю3899100 5.3 1006439
03:00+17юз279931 5.4 1004232
06:00+16зюз259765 0.0 1004147
09:00+20зюз357924 0.0 1003496
12:00+24зюз5752100 0.0 10031628
15:00+23з586182 0.3 10021243
18:00+20зюз410845 1.7 1002997
21:00+18зюз39930 2.7 1001333
30 июля, пт
пт3000:00+15юз289727 0.0 1002172
03:00+15юз31293100 0.0 1002415
06:00+15юз4129397 0.0 1001535
09:00+20зюз59646 0.0 10021125
12:00+21зюз595625 0.5 10011682
15:00+21ююз4848100 0.5 1000871
18:00+20сз365610 0.0 1001548
21:00+16ююз226914 0.0 100035
31 июля, сб
сб3100:00+17ю3106598 0.0 999271
03:00+15ююз31075100 0.1 998275
06:00+14ю41270100 0.0 997453
09:00+17ююз51262100 0.1 9951038
12:00+14ююз61493100 2.9 9951104
15:00+18зюз6118710 4.9 9961127
18:00+22з411490 0.5 9981728
21:00+15з22780 0.5 100035